Time,TemperatureF,DewpointF,PressureIn,WindDirection,WindDirectionDegrees,WindSpeedMPH,WindSpeedGustMPH,Humidity,HourlyPrecipIn,Conditions,Clouds,dailyrainin,SoftwareType,DateUTC
2013-03-22 00:00:00,28.0,-2.4,28.85,SE,141,0.0,3.1,26,0.00,,---,0.00,VWS V14.01,2013-03-22 04:00:00,
2013-03-22 00:03:00,27.9,-2.6,28.85,SE,141,0.0,0.0,26,0.00,,---,0.00,VWS V14.01,2013-03-22 04:03:00,
2013-03-22 00:04:00,27.9,-2.6,28.85,SE,141,0.0,0.0,26,0.00,,---,0.00,VWS V14.01,2013-03-22 04:04:00,
2013-03-22 00:09:00,27.7,-2.7,28.85,SE,141,0.0,0.0,26,0.00,,---,0.00,VWS V14.01,2013-03-22 04:09:00,
2013-03-22 00:14:00,27.5,-2.9,28.85,SE,141,0.0,0.0,26,0.00,,---,0.00,VWS V14.01,2013-03-22 04:14:00,
2013-03-22 00:18:00,27.3,-3.0,28.85,SE,141,0.0,0.0,26,0.00,,---,0.00,VWS V14.01,2013-03-22 04:18:00,
2013-03-22 00:23:00,27.1,-3.2,28.85,NNW,337,0.0,0.0,26,0.00,,---,0.00,VWS V14.01,2013-03-22 04:23:00,
2013-03-22 00:28:00,27.1,-3.2,28.85,NNW,337,0.0,0.0,26,0.00,,---,0.00,VWS V14.01,2013-03-22 04:28:00,
2013-03-22 00:33:00,27.0,-3.3,28.85,NNW,337,0.0,0.0,26,0.00,,---,0.00,VWS V14.01,2013-03-22 04:33:00,
2013-03-22 00:39:00,27.0,-3.3,28.85,NNW,337,0.0,0.0,26,0.00,,---,0.00,VWS V14.01,2013-03-22 04:39:00,
2013-03-22 00:44:00,27.0,-3.3,28.85,NNW,337,0.0,0.0,26,0.00,,---,0.00,VWS V14.01,2013-03-22 04:44:00,
2013-03-22 00:49:00,26.8,-3.5,28.85,NNW,337,0.0,0.0,26,0.00,,---,0.00,VWS V14.01,2013-03-22 04:49:00,
2013-03-22 00:54:00,26.6,-1.4,28.85,NNW,337,0.0,0.0,29,0.00,,---,0.00,VWS V14.01,2013-03-22 04:54:00,
2013-03-22 00:59:00,26.4,-1.5,28.85,NNW,337,0.0,0.0,29,0.00,,---,0.00,VWS V14.01,2013-03-22 04:59:00,
2013-03-22 01:04:00,26.2,-1.7,28.85,NNW,337,0.0,0.0,29,0.00,,---,0.00,VWS V14.01,2013-03-22 05:04:00,
2013-03-22 01:09:00,26.2,-1.7,28.85,NNW,337,0.0,0.0,29,0.00,,---,0.00,VWS V14.01,2013-03-22 05:09:00,
2013-03-22 01:14:00,26.2,-1.7,28.85,NNW,337,0.0,0.0,29,0.00,,---,0.00,VWS V14.01,2013-03-22 05:14:00,
2013-03-22 01:19:00,26.1,-1.8,28.85,NNW,337,0.0,0.0,29,0.00,,---,0.00,VWS V14.01,2013-03-22 05:19:00,
2013-03-22 01:24:00,25.9,-2.0,28.85,NNW,337,0.0,0.0,29,0.00,,---,0.00,VWS V14.01,2013-03-22 05:24:00,
2013-03-22 01:29:00,25.9,-2.0,28.85,NNW,337,0.0,0.0,29,0.00,,---,0.00,VWS V14.01,2013-03-22 05:29:00,
2013-03-22 01:34:00,25.7,-2.2,28.85,NNW,337,0.0,0.0,29,0.00,,---,0.00,VWS V14.01,2013-03-22 05:34:00,
2013-03-22 01:39:00,25.7,-2.2,28.85,NNW,337,0.0,0.0,29,0.00,,---,0.00,VWS V14.01,2013-03-22 05:39:00,
2013-03-22 01:44:00,25.5,-2.3,28.85,NNW,337,0.0,0.0,29,0.00,,---,0.00,VWS V14.01,2013-03-22 05:44:00,
2013-03-22 01:49:00,25.3,-2.5,28.85,NNW,337,0.0,0.0,29,0.00,,---,0.00,VWS V14.01,2013-03-22 05:49:00,
2013-03-22 01:54:00,25.2,-2.6,28.85,NNW,337,0.0,0.0,29,0.00,,---,0.00,VWS V14.01,2013-03-22 05:54:00,
2013-03-22 01:59:00,25.0,-2.8,28.85,NNW,337,0.0,0.0,29,0.00,,---,0.00,VWS V14.01,2013-03-22 05:59:00,
2013-03-22 02:04:00,25.0,-2.8,28.85,NNW,337,0.0,0.0,29,0.00,,---,0.00,VWS V14.01,2013-03-22 06:04:00,
2013-03-22 02:09:00,25.0,-2.8,28.85,NNW,337,0.0,0.0,29,0.00,,---,0.00,VWS V14.01,2013-03-22 06:09:00,
2013-03-22 02:14:00,25.0,-2.8,28.85,East,99,0.0,0.0,29,0.00,,---,0.00,VWS V14.01,2013-03-22 06:14:00,
2013-03-22 02:20:00,25.0,-2.8,28.88,East,99,0.0,0.0,29,0.00,,---,0.00,VWS V14.01,2013-03-22 06:20:00,
2013-03-22 02:25:00,25.0,-2.8,28.88,East,99,0.0,0.0,29,0.00,,---,0.00,VWS V14.01,2013-03-22 06:25:00,
2013-03-22 02:30:00,25.0,-2.8,28.85,East,99,0.0,0.0,29,0.00,,---,0.00,VWS V14.01,2013-03-22 06:30:00,
2013-03-22 02:35:00,25.0,-2.8,28.85,East,99,0.0,0.0,29,0.00,,---,0.00,VWS V14.01,2013-03-22 06:35:00,
2013-03-22 02:40:00,25.0,-2.8,28.85,East,99,0.0,0.0,29,0.00,,---,0.00,VWS V14.01,2013-03-22 06:40:00,
2013-03-22 02:45:00,25.0,-2.8,28.85,East,99,0.0,0.0,29,0.00,,---,0.00,VWS V14.01,2013-03-22 06:45:00,
2013-03-22 02:50:00,25.2,-2.6,28.85,East,99,0.0,0.0,29,0.00,,---,0.00,VWS V14.01,2013-03-22 06:50:00,
2013-03-22 02:55:00,25.2,-2.6,28.85,East,99,0.0,0.0,29,0.00,,---,0.00,VWS V14.01,2013-03-22 06:55:00,
2013-03-22 03:00:00,25.2,-2.6,28.85,East,99,0.0,0.0,29,0.00,,---,0.00,VWS V14.01,2013-03-22 07:00:00,
2013-03-22 03:05:00,25.2,-2.6,28.85,East,99,0.0,0.0,29,0.00,,---,0.00,VWS V14.01,2013-03-22 07:05:00,
2013-03-22 03:10:00,25.2,-2.6,28.85,East,99,0.0,0.0,29,0.00,,---,0.00,VWS V14.01,2013-03-22 07:10:00,
2013-03-22 03:15:00,25.2,-2.6,28.85,East,99,0.0,0.0,29,0.00,,---,0.00,VWS V14.01,2013-03-22 07:15:00,
2013-03-22 03:20:00,25.0,-2.8,28.85,East,99,0.0,0.0,29,0.00,,---,0.00,VWS V14.01,2013-03-22 07:20:00,
2013-03-22 03:25:00,25.0,-2.8,28.85,East,99,0.0,0.0,29,0.00,,---,0.00,VWS V14.01,2013-03-22 07:25:00,
2013-03-22 03:30:00,24.8,-2.9,28.85,East,99,0.0,0.0,29,0.00,,---,0.00,VWS V14.01,2013-03-22 07:30:00,
2013-03-22 03:35:00,24.8,-2.9,28.85,East,99,0.0,0.0,29,0.00,,---,0.00,VWS V14.01,2013-03-22 07:35:00,
2013-03-22 03:40:00,24.8,-0.9,28.85,East,99,0.0,0.0,32,0.00,,---,0.00,VWS V14.01,2013-03-22 07:40:00,
2013-03-22 03:45:00,24.8,-0.9,28.85,NW,310,0.0,4.5,32,0.00,,---,0.00,VWS V14.01,2013-03-22 07:45:00,
2013-03-22 03:50:00,24.8,-0.9,28.85,NW,325,0.0,3.1,32,0.00,,---,0.00,VWS V14.01,2013-03-22 07:50:00,
2013-03-22 03:55:00,24.8,-0.9,28.85,North,3,0.0,4.0,32,0.00,,---,0.00,VWS V14.01,2013-03-22 07:55:00,
2013-03-22 04:00:00,24.6,-1.0,28.85,WNW,282,0.0,0.0,32,0.00,,---,0.00,VWS V14.01,2013-03-22 08:00:00,
2013-03-22 04:05:00,24.4,-1.2,28.85,East,95,0.0,3.6,32,0.00,,---,0.00,VWS V14.01,2013-03-22 08:05:00,
2013-03-22 04:10:00,24.6,-1.0,28.85,North,351,0.0,3.1,32,0.00,,---,0.00,VWS V14.01,2013-03-22 08:10:00,
2013-03-22 04:15:00,24.6,-1.0,28.85,East,83,0.0,0.0,32,0.00,,---,0.00,VWS V14.01,2013-03-22 08:15:00,
2013-03-22 04:20:00,24.4,-1.2,28.85,WNW,300,0.0,0.0,32,0.00,,---,0.00,VWS V14.01,2013-03-22 08:20:00,
2013-03-22 04:25:00,24.4,-1.2,28.85,NE,43,0.0,0.0,32,0.00,,---,0.00,VWS V14.01,2013-03-22 08:25:00,
2013-03-22 04:30:00,24.4,-0.5,28.85,North,351,0.0,4.0,33,0.00,,---,0.00,VWS V14.01,2013-03-22 08:30:00,
2013-03-22 04:35:00,24.3,-0.7,28.85,North,351,0.0,0.0,33,0.00,,---,0.00,VWS V14.01,2013-03-22 08:35:00,
2013-03-22 04:40:00,24.3,-0.7,28.85,North,351,0.0,0.0,33,0.00,,---,0.00,VWS V14.01,2013-03-22 08:40:00,
2013-03-22 04:45:00,24.1,-0.9,28.85,East,101,0.0,3.6,33,0.00,,---,0.00,VWS V14.01,2013-03-22 08:45:00,
2013-03-22 04:50:00,24.1,-0.9,28.85,East,101,0.0,0.0,33,0.00,,---,0.00,VWS V14.01,2013-03-22 08:50:00,
2013-03-22 04:55:00,24.1,-0.9,28.85,ESE,102,0.0,0.0,33,0.00,,---,0.00,VWS V14.01,2013-03-22 08:55:00,
2013-03-22 05:00:00,23.9,-1.0,28.85,East,101,0.0,0.0,33,0.00,,---,0.00,VWS V14.01,2013-03-22 09:00:00,
2013-03-22 05:05:00,24.1,-0.9,28.85,East,101,0.0,0.0,33,0.00,,---,0.00,VWS V14.01,2013-03-22 09:05:00,
2013-03-22 05:10:00,24.1,-0.9,28.85,East,101,0.0,0.0,33,0.00,,---,0.00,VWS V14.01,2013-03-22 09:10:00,
2013-03-22 05:15:00,24.1,-0.9,28.85,East,101,0.0,0.0,33,0.00,,---,0.00,VWS V14.01,2013-03-22 09:15:00,
2013-03-22 05:20:00,23.9,-0.4,28.85,East,101,0.0,0.0,34,0.00,,---,0.00,VWS V14.01,2013-03-22 09:20:00,
2013-03-22 05:25:00,23.9,-0.4,28.85,North,351,0.0,3.1,34,0.00,,---,0.00,VWS V14.01,2013-03-22 09:25:00,
2013-03-22 05:30:00,23.9,0.2,28.85,North,351,0.0,0.0,35,0.00,,---,0.00,VWS V14.01,2013-03-22 09:30:00,
2013-03-22 05:35:00,23.9,0.2,28.85,North,351,0.0,0.0,35,0.00,,---,0.00,VWS V14.01,2013-03-22 09:35:00,
2013-03-22 05:40:00,24.1,0.4,28.85,North,351,0.0,0.0,35,0.00,,---,0.00,VWS V14.01,2013-03-22 09:40:00,
2013-03-22 05:45:00,23.9,0.2,28.85,WNW,302,0.0,4.5,35,0.00,,---,0.00,VWS V14.01,2013-03-22 09:45:00,
2013-03-22 05:50:00,23.9,0.2,28.85,WNW,302,0.0,0.0,35,0.00,,---,0.00,VWS V14.01,2013-03-22 09:50:00,
2013-03-22 05:55:00,23.9,0.2,28.85,WNW,302,0.0,0.0,35,0.00,,---,0.00,VWS V14.01,2013-03-22 09:55:00,
2013-03-22 06:00:00,23.9,0.8,28.85,WNW,303,3.1,3.1,36,0.00,,---,0.00,VWS V14.01,2013-03-22 10:00:00,
2013-03-22 06:05:00,23.9,0.8,28.85,WNW,302,0.0,0.0,36,0.00,,---,0.00,VWS V14.01,2013-03-22 10:05:00,
2013-03-22 06:10:00,23.7,0.7,28.85,WNW,302,0.0,0.0,36,0.00,,---,0.00,VWS V14.01,2013-03-22 10:10:00,
2013-03-22 06:16:00,23.7,1.3,28.85,WNW,302,0.0,0.0,37,0.00,,---,0.00,VWS V14.01,2013-03-22 10:16:00,
2013-03-22 06:21:00,23.7,1.3,28.85,WNW,302,0.0,0.0,37,0.00,,---,0.00,VWS V14.01,2013-03-22 10:21:00,
2013-03-22 06:27:00,23.5,1.7,28.85,WNW,303,0.0,0.0,38,0.00,,---,0.00,VWS V14.01,2013-03-22 10:27:00,
2013-03-22 06:32:00,23.7,1.8,28.85,WNW,302,0.0,0.0,38,0.00,,---,0.00,VWS V14.01,2013-03-22 10:32:00,
2013-03-22 06:37:00,23.7,1.8,28.85,WNW,303,0.0,0.0,38,0.00,,---,0.00,VWS V14.01,2013-03-22 10:37:00,
2013-03-22 06:42:00,23.5,1.7,28.85,WNW,302,0.0,0.0,38,0.00,,---,0.00,VWS V14.01,2013-03-22 10:42:00,
2013-03-22 06:47:00,23.4,2.1,28.85,WNW,303,0.0,0.0,39,0.00,,---,0.00,VWS V14.01,2013-03-22 10:47:00,
2013-03-22 06:52:00,23.4,2.1,28.85,NW,324,0.0,0.0,39,0.00,,---,0.00,VWS V14.01,2013-03-22 10:52:00,
2013-03-22 06:57:00,23.5,2.8,28.85,NW,324,0.0,0.0,40,0.00,,---,0.00,VWS V14.01,2013-03-22 10:57:00,
2013-03-22 07:02:00,23.5,2.8,28.85,NW,324,0.0,0.0,40,0.00,,---,0.00,VWS V14.01,2013-03-22 11:02:00,
2013-03-22 07:08:00,23.7,3.5,28.85,NE,49,0.0,0.0,41,0.00,,---,0.00,VWS V14.01,2013-03-22 11:08:00,
2013-03-22 07:13:00,23.9,3.6,28.85,SE,146,0.0,2.7,41,0.00,,---,0.00,VWS V14.01,2013-03-22 11:13:00,
2013-03-22 07:18:00,23.9,3.6,28.88,SE,146,0.0,0.0,41,0.00,,---,0.00,VWS V14.01,2013-03-22 11:18:00,
2013-03-22 07:23:00,23.9,3.6,28.88,SE,146,0.0,0.0,41,0.00,,---,0.00,VWS V14.01,2013-03-22 11:23:00,
2013-03-22 07:28:00,24.1,3.8,28.88,SE,146,0.0,0.0,41,0.00,,---,0.00,VWS V14.01,2013-03-22 11:28:00,
2013-03-22 07:33:00,24.4,4.7,28.88,SE,139,0.0,0.0,42,0.00,,---,0.00,VWS V14.01,2013-03-22 11:33:00,
2013-03-22 07:38:00,24.8,5.0,28.88,SE,138,0.0,0.0,42,0.00,,---,0.00,VWS V14.01,2013-03-22 11:38:00,
2013-03-22 07:43:00,25.2,5.3,28.88,NNW,340,0.0,0.0,42,0.00,,---,0.00,VWS V14.01,2013-03-22 11:43:00,
2013-03-22 07:48:00,25.7,5.8,28.88,NNE,17,0.0,2.7,42,0.00,,---,0.00,VWS V14.01,2013-03-22 11:48:00,
2013-03-22 07:53:00,25.9,4.9,28.88,NNE,17,0.0,0.0,40,0.00,,---,0.00,VWS V14.01,2013-03-22 11:53:00,
2013-03-22 07:58:00,26.4,4.8,28.88,NNE,17,0.0,0.0,39,0.00,,---,0.00,VWS V14.01,2013-03-22 11:58:00,
2013-03-22 08:03:00,27.0,4.2,28.88,NNE,17,0.0,0.0,37,0.00,,---,0.00,VWS V14.01,2013-03-22 12:03:00,
2013-03-22 08:08:00,27.3,4.5,28.88,NNE,17,0.0,0.0,37,0.00,,---,0.00,VWS V14.01,2013-03-22 12:08:00,
2013-03-22 08:13:00,27.7,3.6,28.88,SE,128,0.0,0.0,35,0.00,,---,0.00,VWS V14.01,2013-03-22 12:13:00,
2013-03-22 08:18:00,28.0,3.9,28.88,East,91,0.0,3.1,35,0.00,,---,0.00,VWS V14.01,2013-03-22 12:18:00,
2013-03-22 08:23:00,28.4,3.0,28.88,NNW,329,0.0,4.0,33,0.00,,---,0.00,VWS V14.01,2013-03-22 12:23:00,
2013-03-22 08:28:00,28.9,3.5,28.88,NNW,329,0.0,0.0,33,0.00,,---,0.00,VWS V14.01,2013-03-22 12:28:00,
2013-03-22 08:33:00,29.5,3.3,28.88,NNW,342,0.0,3.1,32,0.00,,---,0.00,VWS V14.01,2013-03-22 12:33:00,
2013-03-22 08:38:00,30.0,3.8,28.88,North,0,3.6,3.6,32,0.00,,---,0.00,VWS V14.01,2013-03-22 12:38:00,
2013-03-22 08:43:00,30.4,4.1,28.88,NE,38,0.0,3.1,32,0.00,,---,0.00,VWS V14.01,2013-03-22 12:43:00,
2013-03-22 08:48:00,30.9,4.5,28.88,ESE,105,2.7,4.5,32,0.00,,---,0.00,VWS V14.01,2013-03-22 12:48:00,
2013-03-22 08:53:00,31.3,4.2,28.88,North,0,4.0,4.0,31,0.00,,---,0.00,VWS V14.01,2013-03-22 12:53:00,
2013-03-22 08:58:00,31.5,4.3,28.88,North,351,5.4,5.8,31,0.00,,---,0.00,VWS V14.01,2013-03-22 12:58:00,
2013-03-22 09:03:00,32.0,4.8,28.88,NE,41,0.0,2.7,31,0.00,,---,0.00,VWS V14.01,2013-03-22 13:03:00,
2013-03-22 09:08:00,32.4,5.1,28.88,North,351,3.1,5.8,31,0.00,,---,0.00,VWS V14.01,2013-03-22 13:08:00,
2013-03-22 09:13:00,32.5,5.3,28.88,North,0,3.1,4.5,31,0.00,,---,0.00,VWS V14.01,2013-03-22 13:13:00,
2013-03-22 09:18:00,32.5,5.3,28.88,North,2,4.0,4.5,31,0.00,,---,0.00,VWS V14.01,2013-03-22 13:18:00,
2013-03-22 09:23:00,32.7,4.7,28.88,NNW,337,3.6,4.5,30,0.00,,---,0.00,VWS V14.01,2013-03-22 13:23:00,
2013-03-22 09:28:00,32.7,4.7,28.88,North,0,3.1,4.9,30,0.00,,---,0.00,VWS V14.01,2013-03-22 13:28:00,
2013-03-22 09:34:00,33.4,5.3,28.91,East,86,2.7,4.0,30,0.00,,---,0.00,VWS V14.01,2013-03-22 13:34:00,
2013-03-22 09:39:00,34.0,5.8,28.91,NW,323,3.1,4.5,30,0.00,,---,0.00,VWS V14.01,2013-03-22 13:39:00,
2013-03-22 09:44:00,34.2,3.7,28.91,ENE,77,3.6,3.6,27,0.00,,---,0.00,VWS V14.01,2013-03-22 13:44:00,
2013-03-22 09:49:00,33.8,3.4,28.91,NNE,27,0.0,3.1,27,0.00,,---,0.00,VWS V14.01,2013-03-22 13:49:00,
2013-03-22 09:54:00,34.0,3.5,28.91,East,84,0.0,6.7,27,0.00,,---,0.00,VWS V14.01,2013-03-22 13:54:00,
2013-03-22 09:59:00,34.2,2.0,28.91,North,0,2.7,3.1,25,0.00,,---,0.00,VWS V14.01,2013-03-22 13:59:00,
2013-03-22 10:05:00,34.7,2.5,28.91,North,4,3.6,5.4,25,0.00,,---,0.00,VWS V14.01,2013-03-22 14:05:00,
2013-03-22 10:10:00,34.9,1.8,28.91,ENE,57,0.0,0.0,24,0.00,,---,0.00,VWS V14.01,2013-03-22 14:10:00,
2013-03-22 10:15:00,36.0,5.2,28.91,NE,43,5.4,6.9,27,0.00,,---,0.00,VWS V14.01,2013-03-22 14:15:00,
2013-03-22 10:20:00,35.6,2.4,28.91,NNW,339,0.0,4.9,24,0.00,,---,0.00,VWS V14.01,2013-03-22 14:20:00,
2013-03-22 10:25:00,35.6,2.4,28.91,NNE,20,0.0,6.3,24,0.00,,---,0.00,VWS V14.01,2013-03-22 14:25:00,
2013-03-22 10:30:00,36.1,2.8,28.91,NNE,20,0.0,4.0,24,0.00,,---,0.00,VWS V14.01,2013-03-22 14:30:00,
2013-03-22 10:35:00,36.5,3.2,28.91,North,0,0.0,0.0,24,0.00,,---,0.00,VWS V14.01,2013-03-22 14:35:00,
2013-03-22 10:40:00,35.6,0.5,28.91,NNE,28,0.0,3.1,22,0.00,,---,0.00,VWS V14.01,2013-03-22 14:40:00,
2013-03-22 10:45:00,36.3,3.0,28.91,SSW,199,3.1,5.8,24,0.00,,---,0.00,VWS V14.01,2013-03-22 14:45:00,
2013-03-22 10:50:00,36.1,1.0,28.91,North,11,0.0,4.5,22,0.00,,---,0.00,VWS V14.01,2013-03-22 14:50:00,
2013-03-22 10:55:00,37.2,0.9,28.91,North,351,3.1,4.5,21,0.00,,---,0.00,VWS V14.01,2013-03-22 14:55:00,
2013-03-22 11:00:00,37.4,1.0,28.91,East,95,0.0,2.7,21,0.00,,---,0.00,VWS V14.01,2013-03-22 15:00:00,
2013-03-22 11:05:00,37.2,0.9,28.91,NNW,347,2.7,4.9,21,0.00,,---,0.00,VWS V14.01,2013-03-22 15:05:00,
2013-03-22 11:10:00,36.7,0.4,28.91,NNW,328,3.1,5.8,21,0.00,,---,0.00,VWS V14.01,2013-03-22 15:10:00,
2013-03-22 11:15:00,36.9,0.6,28.91,SE,132,3.1,4.5,21,0.00,,---,0.00,VWS V14.01,2013-03-22 15:15:00,
2013-03-22 11:20:00,36.7,0.4,28.91,SE,145,2.7,4.5,21,0.00,,---,0.00,VWS V14.01,2013-03-22 15:20:00,
2013-03-22 11:25:00,36.1,1.0,28.91,NE,56,3.1,3.6,22,0.00,,---,0.00,VWS V14.01,2013-03-22 15:25:00,
2013-03-22 11:30:00,36.0,0.8,28.91,SE,128,4.5,4.5,22,0.00,,---,0.00,VWS V14.01,2013-03-22 15:30:00,
2013-03-22 11:35:00,36.5,1.3,28.91,North,0,0.0,0.0,22,0.00,,---,0.00,VWS V14.01,2013-03-22 15:35:00,
2013-03-22 11:40:00,37.8,1.4,28.91,NE,43,0.0,3.1,21,0.00,,---,0.00,VWS V14.01,2013-03-22 15:40:00,
2013-03-22 11:45:00,37.4,1.0,28.91,NNW,347,3.6,4.5,21,0.00,,---,0.00,VWS V14.01,2013-03-22 15:45:00,
2013-03-22 11:50:00,36.7,0.4,28.91,NNE,19,2.7,3.6,21,0.00,,---,0.00,VWS V14.01,2013-03-22 15:50:00,
2013-03-22 11:55:00,37.0,0.7,28.91,South,183,2.7,4.9,21,0.00,,---,0.00,VWS V14.01,2013-03-22 15:55:00,
2013-03-22 12:00:00,37.0,0.7,28.91,NE,43,0.0,4.5,21,0.00,,---,0.00,VWS V14.01,2013-03-22 16:00:00,
2013-03-22 12:05:00,37.8,1.4,28.91,SE,129,4.9,4.9,21,0.00,,---,0.00,VWS V14.01,2013-03-22 16:05:00,
2013-03-22 12:10:00,37.2,0.9,28.91,NNE,17,3.1,5.8,21,0.00,,---,0.00,VWS V14.01,2013-03-22 16:10:00,
2013-03-22 12:15:00,36.5,0.3,28.91,ESE,120,0.0,3.6,21,0.00,,---,0.00,VWS V14.01,2013-03-22 16:15:00,
2013-03-22 12:20:00,36.3,1.1,28.91,NNE,22,2.7,3.6,22,0.00,,---,0.00,VWS V14.01,2013-03-22 16:20:00,
2013-03-22 12:25:00,36.9,0.6,28.91,NNW,345,0.0,3.6,21,0.00,,---,0.00,VWS V14.01,2013-03-22 16:25:00,
2013-03-22 12:30:00,37.4,1.0,28.91,NNE,12,2.7,3.6,21,0.00,,---,0.00,VWS V14.01,2013-03-22 16:30:00,
2013-03-22 12:35:00,37.4,1.0,28.91,SE,132,3.6,3.6,21,0.00,,---,0.00,VWS V14.01,2013-03-22 16:35:00,
2013-03-22 12:40:00,37.2,0.9,28.91,North,3,4.5,4.9,21,0.00,,---,0.00,VWS V14.01,2013-03-22 16:40:00,
2013-03-22 12:45:00,37.9,1.5,28.91,East,97,6.3,6.3,21,0.00,,---,0.00,VWS V14.01,2013-03-22 16:45:00,
2013-03-22 12:50:00,37.9,1.5,28.91,NNW,343,2.7,4.5,21,0.00,,---,0.00,VWS V14.01,2013-03-22 16:50:00,
2013-03-22 12:55:00,37.9,1.5,28.91,North,351,2.7,5.8,21,0.00,,---,0.00,VWS V14.01,2013-03-22 16:55:00,
2013-03-22 13:00:00,38.1,1.6,28.91,NE,52,0.0,3.6,21,0.00,,---,0.00,VWS V14.01,2013-03-22 17:00:00,
2013-03-22 13:05:00,38.7,2.1,28.91,WSW,247,4.5,5.8,21,0.00,,---,0.00,VWS V14.01,2013-03-22 17:05:00,
2013-03-22 13:10:00,39.6,2.9,28.91,NE,45,2.7,5.4,21,0.00,,---,0.00,VWS V14.01,2013-03-22 17:10:00,
2013-03-22 13:15:00,40.3,3.5,28.91,SE,125,4.5,4.5,21,0.00,,---,0.00,VWS V14.01,2013-03-22 17:15:00,
2013-03-22 13:20:00,39.4,2.7,28.91,SE,125,2.7,3.1,21,0.00,,---,0.00,VWS V14.01,2013-03-22 17:20:00,
2013-03-22 13:25:00,39.6,2.9,28.91,East,86,3.6,3.6,21,0.00,,---,0.00,VWS V14.01,2013-03-22 17:25:00,
2013-03-22 13:30:00,39.9,3.2,28.91,SE,144,3.1,4.5,21,0.00,,---,0.00,VWS V14.01,2013-03-22 17:30:00,
2013-03-22 13:35:00,40.6,3.8,28.91,NE,41,3.6,4.5,21,0.00,,---,0.00,VWS V14.01,2013-03-22 17:35:00,
2013-03-22 13:40:00,40.8,3.9,28.91,SSE,164,3.6,4.9,21,0.00,,---,0.00,VWS V14.01,2013-03-22 17:40:00,
2013-03-22 13:45:00,40.8,3.9,28.88,NNW,340,0.0,4.5,21,0.00,,---,0.00,VWS V14.01,2013-03-22 17:45:00,
2013-03-22 13:50:00,39.7,3.0,28.88,North,11,3.6,6.3,21,0.00,,---,0.00,VWS V14.01,2013-03-22 17:50:00,
2013-03-22 13:55:00,39.4,2.7,28.88,South,189,3.6,4.0,21,0.00,,---,0.00,VWS V14.01,2013-03-22 17:55:00,
2013-03-22 14:00:00,38.8,2.3,28.88,ENE,59,2.7,4.5,21,0.00,,---,0.00,VWS V14.01,2013-03-22 18:00:00,
2013-03-22 14:05:00,38.5,2.0,28.88,NNW,331,0.0,4.0,21,0.00,,---,0.00,VWS V14.01,2013-03-22 18:05:00,
2013-03-22 14:10:00,38.1,1.6,28.88,North,351,3.6,4.9,21,0.00,,---,0.00,VWS V14.01,2013-03-22 18:10:00,
2013-03-22 14:15:00,38.3,1.8,28.88,NE,35,4.0,4.0,21,0.00,,---,0.00,VWS V14.01,2013-03-22 18:15:00,
2013-03-22 14:20:00,38.8,2.3,28.88,ENE,67,0.0,4.5,21,0.00,,---,0.00,VWS V14.01,2013-03-22 18:20:00,
2013-03-22 14:25:00,38.3,1.8,28.88,East,88,3.6,4.9,21,0.00,,---,0.00,VWS V14.01,2013-03-22 18:25:00,
2013-03-22 14:30:00,37.6,1.2,28.88,WNW,300,2.7,7.8,21,0.00,,---,0.00,VWS V14.01,2013-03-22 18:30:00,
2013-03-22 14:35:00,37.0,0.7,28.88,North,5,0.0,4.0,21,0.00,,---,0.00,VWS V14.01,2013-03-22 18:35:00,
2013-03-22 14:40:00,37.0,0.7,28.88,East,85,4.0,4.0,21,0.00,,---,0.00,VWS V14.01,2013-03-22 18:40:00,
2013-03-22 14:45:00,37.6,1.2,28.88,SW,216,0.0,4.5,21,0.00,,---,0.00,VWS V14.01,2013-03-22 18:45:00,
2013-03-22 14:50:00,37.6,1.2,28.88,North,11,3.1,4.5,21,0.00,,---,0.00,VWS V14.01,2013-03-22 18:50:00,
2013-03-22 14:55:00,37.6,1.2,28.88,East,92,2.7,4.9,21,0.00,,---,0.00,VWS V14.01,2013-03-22 18:55:00,
2013-03-22 15:00:00,37.4,1.0,28.88,North,351,0.0,4.9,21,0.00,,---,0.00,VWS V14.01,2013-03-22 19:00:00,
2013-03-22 15:05:00,37.4,1.0,28.88,NNW,332,4.5,4.5,21,0.00,,---,0.00,VWS V14.01,2013-03-22 19:05:00,
2013-03-22 15:10:00,37.0,0.7,28.88,NNW,337,4.9,4.9,21,0.00,,---,0.00,VWS V14.01,2013-03-22 19:10:00,
2013-03-22 15:15:00,37.0,0.7,28.91,East,79,0.0,2.7,21,0.00,,---,0.00,VWS V14.01,2013-03-22 19:15:00,
2013-03-22 15:20:00,37.2,0.9,28.91,NNW,335,0.0,0.0,21,0.00,,---,0.00,VWS V14.01,2013-03-22 19:20:00,
2013-03-22 15:25:00,37.4,1.0,28.91,East,87,3.1,4.0,21,0.00,,---,0.00,VWS V14.01,2013-03-22 19:25:00,
2013-03-22 15:30:00,36.9,0.6,28.88,NNW,343,4.5,5.8,21,0.00,,---,0.00,VWS V14.01,2013-03-22 19:30:00,
2013-03-22 15:35:00,36.3,1.1,28.88,ESE,108,0.0,0.0,22,0.00,,---,0.00,VWS V14.01,2013-03-22 19:35:00,
2013-03-22 15:40:00,36.3,1.1,28.88,SSE,161,3.1,5.8,22,0.00,,---,0.00,VWS V14.01,2013-03-22 19:40:00,
2013-03-22 15:45:00,36.3,3.0,28.91,NNW,343,3.1,4.9,24,0.00,,---,0.00,VWS V14.01,2013-03-22 19:45:00,
2013-03-22 15:50:00,36.3,1.1,28.91,SW,217,0.0,4.0,22,0.00,,---,0.00,VWS V14.01,2013-03-22 19:50:00,
2013-03-22 15:55:00,36.3,1.1,28.91,ENE,71,0.0,6.3,22,0.00,,---,0.00,VWS V14.01,2013-03-22 19:55:00,
2013-03-22 16:00:00,36.3,1.1,28.91,North,0,3.1,5.4,22,0.00,,---,0.00,VWS V14.01,2013-03-22 20:00:00,
2013-03-22 16:05:00,36.5,0.3,28.91,SW,227,2.7,3.6,21,0.00,,---,0.00,VWS V14.01,2013-03-22 20:05:00,
2013-03-22 16:10:00,36.7,0.4,28.91,North,351,0.0,3.6,21,0.00,,---,0.00,VWS V14.01,2013-03-22 20:10:00,
2013-03-22 16:15:00,36.7,0.4,28.88,East,84,0.0,3.1,21,0.00,,---,0.00,VWS V14.01,2013-03-22 20:15:00,
2013-03-22 16:20:00,36.7,0.4,28.88,North,0,2.7,4.5,21,0.00,,---,0.00,VWS V14.01,2013-03-22 20:20:00,
2013-03-22 16:25:00,36.9,0.6,28.88,WSW,251,4.0,5.8,21,0.00,,---,0.00,VWS V14.01,2013-03-22 20:25:00,
2013-03-22 16:30:00,36.9,0.6,28.91,WNW,301,4.0,4.0,21,0.00,,---,0.00,VWS V14.01,2013-03-22 20:30:00,
2013-03-22 16:35:00,36.9,0.6,28.91,ESE,113,0.0,3.6,21,0.00,,---,0.00,VWS V14.01,2013-03-22 20:35:00,
2013-03-22 16:40:00,37.0,0.7,28.91,SSW,193,2.7,4.9,21,0.00,,---,0.00,VWS V14.01,2013-03-22 20:40:00,
2013-03-22 16:45:00,37.0,0.7,28.91,NE,44,0.0,4.5,21,0.00,,---,0.00,VWS V14.01,2013-03-22 20:45:00,
2013-03-22 16:50:00,37.0,0.7,28.91,SSE,154,2.7,4.0,21,0.00,,---,0.00,VWS V14.01,2013-03-22 20:50:00,
2013-03-22 16:55:00,37.2,0.9,28.91,SSE,147,0.0,2.7,21,0.00,,---,0.00,VWS V14.01,2013-03-22 20:55:00,
2013-03-22 17:00:00,37.2,0.9,28.91,South,171,0.0,4.5,21,0.00,,---,0.00,VWS V14.01,2013-03-22 21:00:00,
2013-03-22 17:05:00,36.9,0.6,28.91,ENE,71,0.0,3.6,21,0.00,,---,0.00,VWS V14.01,2013-03-22 21:05:00,
2013-03-22 17:10:00,36.9,0.6,28.91,NNW,342,4.0,4.0,21,0.00,,---,0.00,VWS V14.01,2013-03-22 21:10:00,
2013-03-22 17:15:00,36.9,0.6,28.91,North,351,0.0,3.6,21,0.00,,---,0.00,VWS V14.01,2013-03-22 21:15:00,
2013-03-22 17:20:00,36.9,0.6,28.91,ESE,106,4.5,4.5,21,0.00,,---,0.00,VWS V14.01,2013-03-22 21:20:00,
2013-03-22 17:25:00,36.7,0.4,28.91,NNW,341,3.1,5.8,21,0.00,,---,0.00,VWS V14.01,2013-03-22 21:25:00,
2013-03-22 17:32:00,36.5,0.3,28.91,SSW,208,0.0,3.1,21,0.00,,---,0.00,VWS V14.01,2013-03-22 21:32:00,
2013-03-22 17:37:00,36.3,1.1,28.91,South,186,3.1,5.4,22,0.00,,---,0.00,VWS V14.01,2013-03-22 21:37:00,
2013-03-22 17:42:00,36.1,1.0,28.91,ENE,67,2.7,4.0,22,0.00,,---,0.00,VWS V14.01,2013-03-22 21:42:00,
2013-03-22 17:48:00,36.3,1.1,28.91,NE,45,0.0,3.1,22,0.00,,---,0.00,VWS V14.01,2013-03-22 21:48:00,
2013-03-22 17:53:00,36.1,2.8,28.91,NE,51,3.1,4.0,24,0.00,,---,0.00,VWS V14.01,2013-03-22 21:53:00,
2013-03-22 17:58:00,36.1,2.8,28.91,ENE,64,0.0,3.6,24,0.00,,---,0.00,VWS V14.01,2013-03-22 21:58:00,
2013-03-22 18:04:00,36.0,2.7,28.91,NNE,33,4.0,4.9,24,0.00,,---,0.00,VWS V14.01,2013-03-22 22:04:00,
2013-03-22 18:10:00,35.6,2.4,28.91,NNW,344,3.1,5.4,24,0.00,,---,0.00,VWS V14.01,2013-03-22 22:10:00,
2013-03-22 18:15:00,35.6,2.4,28.91,North,0,2.7,5.8,24,0.00,,---,0.00,VWS V14.01,2013-03-22 22:15:00,
2013-03-22 18:20:00,35.4,2.2,28.91,East,81,0.0,0.0,24,0.00,,---,0.00,VWS V14.01,2013-03-22 22:20:00,
2013-03-22 18:25:00,35.2,2.1,28.91,ENE,58,4.0,6.9,24,0.00,,---,0.00,VWS V14.01,2013-03-22 22:25:00,
2013-03-22 18:30:00,35.2,2.1,28.91,ENE,68,0.0,2.7,24,0.00,,---,0.00,VWS V14.01,2013-03-22 22:30:00,
2013-03-22 18:35:00,35.1,1.9,28.91,NNW,332,2.7,6.3,24,0.00,,---,0.00,VWS V14.01,2013-03-22 22:35:00,
2013-03-22 18:40:00,34.9,1.8,28.91,NNW,333,0.0,4.0,24,0.00,,---,0.00,VWS V14.01,2013-03-22 22:40:00,
2013-03-22 18:45:00,34.7,2.5,28.94,South,178,3.6,4.5,25,0.00,,---,0.00,VWS V14.01,2013-03-22 22:45:00,
2013-03-22 18:50:00,34.5,2.3,28.94,NE,49,0.0,2.7,25,0.00,,---,0.00,VWS V14.01,2013-03-22 22:50:00,
2013-03-22 18:56:00,34.5,2.3,28.94,SE,140,0.0,3.1,25,0.00,,---,0.00,VWS V14.01,2013-03-22 22:56:00,
2013-03-22 19:02:00,34.3,3.8,28.94,ENE,65,3.6,3.6,27,0.00,,---,0.00,VWS V14.01,2013-03-22 23:02:00,
2013-03-22 19:07:00,34.0,3.5,28.94,NW,316,3.1,4.5,27,0.00,,---,0.00,VWS V14.01,2013-03-22 23:07:00,
2013-03-22 19:12:00,33.8,5.7,28.94,SSE,165,3.6,4.9,30,0.00,,---,0.00,VWS V14.01,2013-03-22 23:12:00,
2013-03-22 19:17:00,33.8,5.7,28.94,WNW,301,0.0,4.0,30,0.00,,---,0.00,VWS V14.01,2013-03-22 23:17:00,
2013-03-22 19:23:00,33.6,5.5,28.94,ESE,117,0.0,0.0,30,0.00,,---,0.00,VWS V14.01,2013-03-22 23:23:00,
2013-03-22 19:28:00,33.6,5.5,28.94,North,0,4.0,6.9,30,0.00,,---,0.00,VWS V14.01,2013-03-22 23:28:00,
2013-03-22 19:34:00,33.6,5.5,28.94,NNE,19,0.0,0.0,30,0.00,,---,0.00,VWS V14.01,2013-03-22 23:34:00,
2013-03-22 19:39:00,33.4,5.3,28.94,NNW,341,3.6,5.8,30,0.00,,---,0.00,VWS V14.01,2013-03-22 23:39:00,
2013-03-22 19:44:00,33.3,5.2,28.94,East,99,2.7,4.5,30,0.00,,---,0.00,VWS V14.01,2013-03-22 23:44:00,
2013-03-22 19:49:00,33.3,5.2,28.94,SE,124,0.0,3.6,30,0.00,,---,0.00,VWS V14.01,2013-03-22 23:49:00,
2013-03-22 19:55:00,33.3,5.2,28.94,South,173,3.1,4.5,30,0.00,,---,0.00,VWS V14.01,2013-03-22 23:55:00,
2013-03-22 20:00:00,33.3,5.9,28.97,East,101,3.1,4.9,31,0.00,,---,0.00,VWS V14.01,2013-03-23 00:00:00,
2013-03-22 20:05:00,33.1,5.8,28.97,NE,42,0.0,0.0,31,0.00,,---,0.00,VWS V14.01,2013-03-23 00:05:00,
2013-03-22 20:10:00,32.9,5.6,28.97,ENE,61,0.0,0.0,31,0.00,,---,0.00,VWS V14.01,2013-03-23 00:10:00,
2013-03-22 20:15:00,32.7,6.1,28.97,ENE,67,4.0,4.9,32,0.00,,---,0.00,VWS V14.01,2013-03-23 00:15:00,
2013-03-22 20:20:00,32.7,6.8,28.97,NNW,338,4.0,4.9,33,0.00,,---,0.00,VWS V14.01,2013-03-23 00:20:00,
2013-03-22 20:25:00,32.7,6.8,28.97,NNE,12,0.0,2.7,33,0.00,,---,0.00,VWS V14.01,2013-03-23 00:25:00,
2013-03-22 20:30:00,32.7,6.1,28.97,NNE,13,3.1,4.5,32,0.00,,---,0.00,VWS V14.01,2013-03-23 00:30:00,
2013-03-22 20:35:00,32.7,6.8,28.97,SE,136,0.0,2.7,33,0.00,,---,0.00,VWS V14.01,2013-03-23 00:35:00,
2013-03-22 20:42:00,32.7,6.8,28.97,North,351,0.0,2.7,33,0.00,,---,0.00,VWS V14.01,2013-03-23 00:42:00,
2013-03-22 20:47:00,32.9,7.0,28.97,NNW,337,0.0,0.0,33,0.00,,---,0.00,VWS V14.01,2013-03-23 00:47:00,
2013-03-22 20:52:00,32.9,7.0,28.97,NE,55,2.7,5.4,33,0.00,,---,0.00,VWS V14.01,2013-03-23 00:52:00,
2013-03-22 20:57:00,32.9,7.0,28.97,NE,38,0.0,4.0,33,0.00,,---,0.00,VWS V14.01,2013-03-23 00:57:00,
2013-03-22 21:03:00,32.7,6.8,28.97,SE,128,0.0,3.6,33,0.00,,---,0.00,VWS V14.01,2013-03-23 01:03:00,
2013-03-22 21:08:00,32.7,7.5,28.97,SE,127,0.0,0.0,34,0.00,,---,0.00,VWS V14.01,2013-03-23 01:08:00,
2013-03-22 21:13:00,32.7,7.5,28.97,North,0,0.0,0.0,34,0.00,,---,0.00,VWS V14.01,2013-03-23 01:13:00,
2013-03-22 21:19:00,32.5,7.9,28.97,NE,44,0.0,0.0,35,0.00,,---,0.00,VWS V14.01,2013-03-23 01:19:00,
2013-03-22 21:24:00,32.5,8.6,28.97,NNE,33,0.0,2.7,36,0.00,,---,0.00,VWS V14.01,2013-03-23 01:24:00,
2013-03-22 21:29:00,32.5,8.6,28.97,North,351,2.7,4.5,36,0.00,,---,0.00,VWS V14.01,2013-03-23 01:29:00,
2013-03-22 21:34:00,32.5,8.6,29.00,North,351,0.0,0.0,36,0.00,,---,0.00,VWS V14.01,2013-03-23 01:34:00,
2013-03-22 21:39:00,32.5,9.2,29.00,NNW,338,4.0,4.0,37,0.00,,---,0.00,VWS V14.01,2013-03-23 01:39:00,
2013-03-22 21:44:00,32.5,9.2,29.00,ENE,73,0.0,0.0,37,0.00,,---,0.00,VWS V14.01,2013-03-23 01:44:00,
2013-03-22 21:49:00,32.4,8.4,29.00,ENE,73,0.0,0.0,36,0.00,,---,0.00,VWS V14.01,2013-03-23 01:49:00,
2013-03-22 21:54:00,32.2,8.2,29.00,SE,127,0.0,0.0,36,0.00,,---,0.00,VWS V14.01,2013-03-23 01:54:00,
2013-03-22 21:59:00,32.0,8.1,29.00,SE,127,0.0,0.0,36,0.00,,---,0.00,VWS V14.01,2013-03-23 01:59:00,
2013-03-22 22:04:00,31.8,7.9,28.97,ENE,66,0.0,0.0,36,0.00,,---,0.00,VWS V14.01,2013-03-23 02:04:00,
2013-03-22 22:09:00,31.6,8.4,28.97,NNW,337,0.0,0.0,37,0.00,,---,0.00,VWS V14.01,2013-03-23 02:09:00,
2013-03-22 22:14:00,31.5,8.2,28.97,NNW,337,0.0,0.0,37,0.00,,---,0.00,VWS V14.01,2013-03-23 02:14:00,
2013-03-22 22:19:00,31.5,8.8,29.00,WNW,297,0.0,0.0,38,0.00,,---,0.00,VWS V14.01,2013-03-23 02:19:00,
2013-03-22 22:25:00,31.5,8.8,29.00,West,264,0.0,3.6,38,0.00,,---,0.00,VWS V14.01,2013-03-23 02:25:00,
2013-03-22 22:30:00,31.5,8.8,29.00,West,267,3.1,3.1,38,0.00,,---,0.00,VWS V14.01,2013-03-23 02:30:00,
2013-03-22 22:35:00,31.6,9.5,29.00,West,267,0.0,0.0,39,0.00,,---,0.00,VWS V14.01,2013-03-23 02:35:00,
2013-03-22 22:40:00,31.8,9.7,29.00,NNW,338,0.0,0.0,39,0.00,,---,0.00,VWS V14.01,2013-03-23 02:40:00,
2013-03-22 22:45:00,32.0,10.4,29.00,NNW,341,0.0,0.0,40,0.00,,---,0.00,VWS V14.01,2013-03-23 02:45:00,
2013-03-22 22:50:00,32.2,10.6,29.00,North,0,0.0,0.0,40,0.00,,---,0.00,VWS V14.01,2013-03-23 02:50:00,
2013-03-22 22:55:00,32.2,9.4,29.00,North,351,0.0,0.0,38,0.00,,---,0.00,VWS V14.01,2013-03-23 02:55:00,
2013-03-22 23:00:00,32.4,9.6,29.00,SE,134,0.0,0.0,38,0.00,,---,0.00,VWS V14.01,2013-03-23 03:00:00,
2013-03-22 23:05:00,32.5,10.4,29.00,WSW,251,0.0,0.0,39,0.00,,---,0.00,VWS V14.01,2013-03-23 03:05:00,
2013-03-22 23:10:00,32.4,9.6,29.00,NE,42,0.0,4.0,38,0.00,,---,0.00,VWS V14.01,2013-03-23 03:10:00,
2013-03-22 23:15:00,32.5,9.8,29.00,South,188,2.7,3.1,38,0.00,,---,0.00,VWS V14.01,2013-03-23 03:15:00,
2013-03-22 23:20:00,32.5,8.6,29.00,North,351,0.0,4.0,36,0.00,,---,0.00,VWS V14.01,2013-03-23 03:20:00,
2013-03-22 23:25:00,32.5,8.6,29.00,NNW,329,3.6,7.4,36,0.00,,---,0.00,VWS V14.01,2013-03-23 03:25:00,
2013-03-22 23:30:00,32.7,8.1,29.00,NNW,337,0.0,4.0,35,0.00,,---,0.00,VWS V14.01,2013-03-23 03:30:00,
2013-03-22 23:35:00,32.7,7.5,29.00,South,189,0.0,0.0,34,0.00,,---,0.00,VWS V14.01,2013-03-23 03:35:00,
2013-03-22 23:40:00,32.7,8.1,29.00,NNW,331,4.5,5.4,35,0.00,,---,0.00,VWS V14.01,2013-03-23 03:40:00,
2013-03-22 23:45:00,32.5,7.3,29.00,NE,47,0.0,4.5,34,0.00,,---,0.00,VWS V14.01,2013-03-23 03:45:00,
2013-03-22 23:50:00,32.5,7.3,29.00,ENE,65,0.0,4.0,34,0.00,,---,0.00,VWS V14.01,2013-03-23 03:50:00,
2013-03-22 23:55:00,32.5,7.3,29.00,North,351,0.0,3.6,34,0.00,,---,0.00,VWS V14.01,2013-03-23 03:55:00,